When you browse on this site, cookies collect data to enhance your experience and personalize the content and advertising you see.
Visit our Privacy Policy to learn more. By continuing to use the site, you agree to this use of cookies and data.
  • In Portugal
  • List of Countries
  • For 7 days
  • Water Temperature
  • Weather Map
  • Weather Widgets
  • user-avatar
    Login

    Hourly Weather Razgrad

    Today, 1 April, Wednesday

    Time Temperature Precipitation Wind Pressure Humidity
    00:00 +1°C° 0.1 mm 3 mps 745 mmHg 56%
    01:00 0°C° 0.1 mm 3 mps 745 mmHg 57%
    02:00 0°C° 0.1 mm 3 mps 745 mmHg 59%
    03:00 0°C° 0.2 mm 3 mps 744 mmHg 64%
    04:00 -1°C° 0.2 mm 3 mps 744 mmHg 70%
    05:00 -1°C° 0.2 mm 3 mps 744 mmHg 76%
    06:00 -1°C° 0.5 mm 3 mps 744 mmHg 79%
    07:00 -2°C° 0.5 mm 3 mps 745 mmHg 83%
    08:00 -3°C° 0.5 mm 4 mps 745 mmHg 87%
    09:00 -2°C° 0.2 mm 4 mps 745 mmHg 86%
    10:00 -1°C° 0.2 mm 4 mps 745 mmHg 85%
    11:00 -1°C° 0.2 mm 4 mps 745 mmHg 84%
    12:00 0°C° 0 mm 4 mps 744 mmHg 81%
    13:00 +1°C° 0 mm 4 mps 744 mmHg 79%
    14:00 +3°C° 0 mm 4 mps 744 mmHg 76%
    15:00 +3°C° 0 mm 4 mps 744 mmHg 78%
    16:00 +3°C° 0 mm 4 mps 743 mmHg 80%
    17:00 +2°C° 0 mm 5 mps 742 mmHg 82%
    18:00 +1°C° 0 mm 4 mps 742 mmHg 84%
    19:00 +1°C° 0 mm 3 mps 743 mmHg 86%
    20:00 +1°C° 0 mm 3 mps 743 mmHg 88%
    21:00 0°C° 0 mm 3 mps 743 mmHg 86%
    22:00 0°C° 0 mm 3 mps 743 mmHg 84%
    23:00 0°C° 0 mm 3 mps 743 mmHg 82%

    Tomorrow, 2 April, Thursday

    Time Temperature Precipitation Wind Pressure Humidity
    00:00 -1°C° 0 mm 2 mps 743 mmHg 82%
    01:00 -1°C° 0 mm 2 mps 742 mmHg 81%
    02:00 -1°C° 0 mm 2 mps 742 mmHg 81%
    03:00 -1°C° 0 mm 2 mps 742 mmHg 81%
    04:00 +1°C° 0 mm 1 mps 742 mmHg 81%
    05:00 +1°C° 0 mm 1 mps 742 mmHg 81%
    06:00 +2°C° 0 mm 1 mps 742 mmHg 77%
    07:00 +1°C° 0 mm 2 mps 742 mmHg 72%
    08:00 +2°C° 0 mm 2 mps 742 mmHg 68%
    09:00 +3°C° 0 mm 2 mps 742 mmHg 64%
    10:00 +4°C° 0 mm 3 mps 742 mmHg 59%
    11:00 +7°C° 0 mm 3 mps 742 mmHg 55%
    12:00 +7°C° 0 mm 3 mps 742 mmHg 58%
    13:00 +7°C° 0 mm 3 mps 741 mmHg 61%
    14:00 +8°C° 0 mm 3 mps 741 mmHg 63%
    15:00 +8°C° 0 mm 3 mps 741 mmHg 62%
    16:00 +8°C° 0 mm 2 mps 740 mmHg 61%
    17:00 +8°C° 0 mm 2 mps 740 mmHg 60%
    18:00 +7°C° 0 mm 2 mps 740 mmHg 64%
    19:00 +6°C° 0 mm 1 mps 740 mmHg 68%
    20:00 +5°C° 0 mm 1 mps 741 mmHg 73%
    21:00 +4°C° 0 mm 1 mps 741 mmHg 74%
    22:00 +4°C° 0 mm 1 mps 741 mmHg 76%
    23:00 +3°C° 0 mm 1 mps 741 mmHg 78%

    Day after tomorrow, 3 April, Friday

    Time Temperature Precipitation Wind Pressure Humidity
    00:00 +3°C° 0 mm 1 mps 741 mmHg 79%
    01:00 +3°C° 0 mm 1 mps 741 mmHg 80%
    02:00 +3°C° 0 mm 1 mps 741 mmHg 81%
    03:00 +3°C° 0 mm 1 mps 740 mmHg 82%
    04:00 +1°C° 0 mm 0 mps 740 mmHg 82%
    05:00 +1°C° 0 mm 0 mps 740 mmHg 83%
    06:00 +3°C° 0 mm 0 mps 740 mmHg 77%
    07:00 +4°C° 0 mm 0 mps 741 mmHg 72%
    08:00 +6°C° 0 mm 0 mps 741 mmHg 67%
    09:00 +8°C° 0 mm 1 mps 741 mmHg 61%
    10:00 +10°C° 0 mm 1 mps 741 mmHg 55%
    11:00 +12°C° 0 mm 2 mps 741 mmHg 49%
    12:00 +13°C° 0 mm 2 mps 741 mmHg 48%
    13:00 +14°C° 0 mm 2 mps 741 mmHg 48%
    14:00 +15°C° 0 mm 2 mps 741 mmHg 47%
    15:00 +14°C° 0 mm 2 mps 740 mmHg 50%
    16:00 +14°C° 0 mm 1 mps 740 mmHg 52%
    17:00 +14°C° 0 mm 1 mps 740 mmHg 55%
    18:00 +13°C° 0 mm 1 mps 740 mmHg 61%
    19:00 +11°C° 0 mm 1 mps 741 mmHg 66%
    20:00 +10°C° 0 mm 1 mps 741 mmHg 72%
    21:00 +9°C° 0 mm 1 mps 741 mmHg 74%
    22:00 +8°C° 0 mm 1 mps 742 mmHg 77%
    23:00 +7°C° 0 mm 1 mps 742 mmHg 79%

    4 April, Saturday

    Time Temperature Precipitation Wind Pressure Humidity
    00:00 +7°C° 0 mm 1 mps 742 mmHg 80%
    01:00 +7°C° 0 mm 1 mps 742 mmHg 81%
    02:00 +5°C° 0 mm 0 mps 742 mmHg 83%
    03:00 +5°C° 0 mm 0 mps 742 mmHg 83%
    04:00 +5°C° 0 mm 0 mps 742 mmHg 84%
    05:00 +5°C° 0 mm 0 mps 742 mmHg 84%
    06:00 +6°C° 0 mm 0 mps 743 mmHg 80%
    07:00 +7°C° 0 mm 0 mps 743 mmHg 76%
    08:00 +9°C° 0 mm 0 mps 744 mmHg 71%
    09:00 +11°C° 0 mm 1 mps 744 mmHg 66%
    10:00 +13°C° 0 mm 1 mps 744 mmHg 61%
    11:00 +14°C° 0 mm 1 mps 744 mmHg 55%
    12:00 +15°C° 0 mm 2 mps 744 mmHg 55%
    13:00 +15°C° 0 mm 2 mps 744 mmHg 54%
    14:00 +15°C° 0 mm 2 mps 744 mmHg 53%
    15:00 +15°C° 0.1 mm 2 mps 744 mmHg 55%
    16:00 +15°C° 0.1 mm 2 mps 744 mmHg 57%
    17:00 +15°C° 0.1 mm 2 mps 744 mmHg 59%
    18:00 +13°C° 0 mm 2 mps 745 mmHg 64%
    19:00 +12°C° 0 mm 2 mps 745 mmHg 69%
    20:00 +10°C° 0 mm 2 mps 746 mmHg 74%
    21:00 +9°C° 0 mm 2 mps 746 mmHg 74%
    22:00 +8°C° 0 mm 2 mps 747 mmHg 75%
    23:00 +7°C° 0 mm 2 mps 747 mmHg 76%

    5 April, Sunday

    Time Temperature Precipitation Wind Pressure Humidity
    00:00 +8°C° 0 mm 1 mps 747 mmHg 73%
    01:00 +7°C° 0 mm 1 mps 747 mmHg 71%
    02:00 +7°C° 0 mm 1 mps 747 mmHg 69%
    03:00 +6°C° 0 mm 1 mps 748 mmHg 68%
    04:00 +6°C° 0 mm 1 mps 748 mmHg 67%
    05:00 +5°C° 0 mm 2 mps 748 mmHg 66%
    06:00 +6°C° 0 mm 2 mps 748 mmHg 63%
    07:00 +7°C° 0 mm 3 mps 749 mmHg 59%
    08:00 +7°C° 0 mm 4 mps 749 mmHg 56%
    09:00 +9°C° 0 mm 6 mps 749 mmHg 53%
    10:00 +10°C° 0 mm 7 mps 749 mmHg 51%
    11:00 +12°C° 0 mm 8 mps 749 mmHg 48%
    12:00 +13°C° 0 mm 9 mps 749 mmHg 48%
    13:00 +13°C° 0 mm 9 mps 749 mmHg 47%
    14:00 +14°C° 0 mm 10 mps 748 mmHg 47%
    15:00 +13°C° 0 mm 9 mps 748 mmHg 49%
    16:00 +12°C° 0 mm 9 mps 748 mmHg 52%
    17:00 +11°C° 0 mm 9 mps 748 mmHg 55%
    18:00 +10°C° 0 mm 7 mps 748 mmHg 57%
    19:00 +8°C° 0 mm 6 mps 748 mmHg 59%
    20:00 +6°C° 0 mm 5 mps 748 mmHg 62%
    21:00 +6°C° 0 mm 5 mps 749 mmHg 62%
    22:00 +6°C° 0 mm 5 mps 749 mmHg 63%
    23:00 +5°C° 0 mm 5 mps 749 mmHg 64%

    6 April, Monday

    Time Temperature Precipitation Wind Pressure Humidity
    00:00 +4°C° 0 mm 6 mps 749 mmHg 65%
    01:00 +4°C° 0 mm 6 mps 749 mmHg 66%
    02:00 +4°C° 0 mm 7 mps 749 mmHg 66%
    03:00 +3°C° 0 mm 7 mps 749 mmHg 67%
    04:00 +3°C° 0 mm 7 mps 750 mmHg 68%
    05:00 +2°C° 0 mm 7 mps 750 mmHg 69%
    06:00 +2°C° 0 mm 7 mps 750 mmHg 66%
    07:00 +2°C° 0 mm 8 mps 751 mmHg 64%
    08:00 +2°C° 0 mm 9 mps 751 mmHg 61%
    09:00 +3°C° 0 mm 9 mps 752 mmHg 57%
    10:00 +6°C° 0 mm 9 mps 752 mmHg 54%
    11:00 +7°C° 0 mm 10 mps 752 mmHg 50%
    12:00 +7°C° 0 mm 9 mps 752 mmHg 48%
    13:00 +8°C° 0 mm 9 mps 752 mmHg 47%
    14:00 +8°C° 0 mm 9 mps 752 mmHg 45%
    15:00 +7°C° 0 mm 9 mps 752 mmHg 47%
    16:00 +6°C° 0 mm 9 mps 752 mmHg 49%
    17:00 +5°C° 0 mm 9 mps 752 mmHg 51%
    18:00 +4°C° 0 mm 8 mps 752 mmHg 53%
    19:00 +3°C° 0 mm 7 mps 753 mmHg 56%
    20:00 +1°C° 0 mm 6 mps 753 mmHg 58%
    21:00 +1°C° 0 mm 5 mps 753 mmHg 60%
    22:00 +1°C° 0 mm 5 mps 753 mmHg 63%
    23:00 0°C° 0 mm 4 mps 754 mmHg 66%
    Show more